FW7442 Weather Reports


Display with metric or nautical units.
time (UTC)temp
F
wind
direction
speed
MPH
gust
MPH
rain 1hr
in
rain 24hr
in
rain mn
in
humidity
%
barometer
mb
20260508174603 66 77 1.0 10.0 0.00 0.18 0.02 46 1016.7
20260508173051 66 196 2.0 6.0 0.00 0.18 0.02 47 1017.2
20260508171554 65 105 3.0 9.0 0.00 0.18 0.02 49 1017.2
20260508170054 65 165 3.0 8.0 0.00 0.18 0.02 49 1017.4
20260508164552 66 30 2.0 6.0 0.00 0.18 0.02 45 1017.6
20260508163051 66 82 1.0 7.0 0.00 0.18 0.02 45 1017.7
20260508161548 67 200 2.0 9.0 0.00 0.18 0.02 46 1017.9
20260508160052 66 0 2.0 8.0 0.00 0.18 0.02 44 1018.1
20260508154551 67 313 1.0 7.0 0.00 0.18 0.02 44 1018.5
20260508153051 65 98 2.0 8.0 0.00 0.18 0.02 44 1018.6
20260508151557 64 52 3.0 7.0 0.00 0.18 0.02 50 1018.6
20260508150047 64 52 3.0 6.0 0.00 0.18 0.02 48 1018.8
20260508144552 60 143 0.0 6.0 0.00 0.18 0.02 53 1018.9
20260508143059 61 0 2.0 5.0 0.00 0.18 0.02 53 1018.9
20260508141553 62 66 1.0 5.0 0.00 0.18 0.02 47 1019.0
20260508140056 60 279 0.0 4.0 0.00 0.18 0.02 54 1019.0
20260508134552 59 0 0.0 3.0 0.00 0.19 0.02 58 1019.0
20260508133050 58 0 0.0 3.0 0.00 0.19 0.02 59 1018.9
20260508131557 58 0 0.0 0.0 0.00 0.19 0.02 68 1019.0
20260508130105 56 0 0.0 0.0 0.00 0.19 0.02 73 1018.8
20260508124556 55 0 0.0 0.0 0.00 0.22 0.02 82 1018.7
20260508123057 51 0 0.0 0.0 0.00 0.22 0.02 89 1018.6
20260508121557 48 0 0.0 0.0 0.00 0.22 0.02 94 1018.6
20260508120057 47 0 0.0 0.0 0.00 0.22 0.02 94 1018.2
20260508114554 44 0 0.0 0.0 0.01 0.34 0.02 94 1018.1
20260508113050 42 0 0.0 0.0 0.01 0.34 0.02 93 1017.9
20260508111552 42 0 0.0 0.0 0.01 0.34 0.02 92 1017.7
20260508110055 41 0 0.0 0.0 0.01 0.34 0.02 92 1017.4
20260508104604 41 0 0.0 0.0 0.00 0.33 0.01 92 1017.2
20260508103056 41 0 0.0 0.0 0.01 0.33 0.01 92 1016.8
20260508101554 42 0 0.0 0.0 0.01 0.33 0.01 92 1016.5
20260508100054 42 0 0.0 0.0 0.01 0.33 0.01 92 1016.5
20260508094551 42 0 0.0 0.0 0.01 0.33 0.01 92 1016.4
20260508093056 42 0 0.0 0.0 0.00 0.32 0.00 92 1016.3
20260508091604 43 0 0.0 0.0 0.00 0.32 0.00 92 1016.2
20260508090104 43 0 0.0 0.0 0.00 0.32 0.00 91 1016.2
20260508084553 43 0 0.0 0.0 0.00 0.34 0.00 92 1015.9
20260508083055 44 0 0.0 0.0 0.00 0.34 0.00 91 1016.1
20260508081602 44 0 0.0 0.0 0.00 0.34 0.00 91 1015.9
20260508080056 44 0 0.0 0.0 0.00 0.34 0.00 91 1015.9
20260508074551 44 0 0.0 0.0 0.00 0.34 0.00 91 1015.9
20260508073100 44 0 0.0 0.0 0.00 0.34 0.00 91 1015.7
20260508071607 45 0 0.0 0.0 0.00 0.34 0.00 90 1015.7
20260508064553 46 0 0.0 0.0 0.00 0.34 0.00 90 1015.3
20260508063050 46 0 0.0 0.0 0.00 0.34 0.00 90 1015.3
20260508061551 46 0 0.0 0.0 0.00 0.34 0.00 90 1015.1
20260508060055 46 0 0.0 0.0 0.00 0.34 0.00 90 1015.3
20260508054602 47 0 0.0 0.0 0.00 0.39 0.00 89 1015.3
20260508053052 47 0 0.0 0.0 0.00 0.39 0.00 90 1015.2
20260508051550 47 0 0.0 0.0 0.00 0.39 0.00 89 1015.2
20260508050051 48 0 0.0 0.0 0.00 0.39 0.00 89 1015.1
20260508044557 48 0 0.0 0.0 0.00 0.43 0.00 89 1014.9
20260508043048 48 0 0.0 0.0 0.00 0.43 0.00 88 1014.8
20260508041641 49 0 0.0 0.0 0.00 0.43 0.00 88 1014.7
20260508040100 49 0 0.0 0.0 0.00 0.43 0.00 87 1014.9
20260508034548 50 0 0.0 0.0 0.00 0.43 0.43 85 1014.8
20260508033112 51 0 0.0 0.0 0.00 0.43 0.43 83 1014.9
20260508031549 52 0 0.0 0.0 0.00 0.43 0.43 81 1014.8
20260508030106 53 0 0.0 0.0 0.00 0.43 0.43 79 1014.6
20260508024610 54 0 0.0 0.0 0.00 0.47 0.43 77 1014.3
20260508023048 54 0 0.0 0.0 0.00 0.47 0.43 75 1014.1
20260508021548 54 318 0.0 5.0 0.00 0.47 0.43 75 1014.0
20260508020105 54 0 0.0 3.0 0.00 0.47 0.43 76 1013.9
20260508014556 55 0 0.0 0.0 0.00 0.54 0.43 76 1013.6
20260508013106 56 0 0.0 2.0 0.00 0.54 0.43 74 1013.3
20260508011557 57 219 0.0 2.0 0.00 0.54 0.43 72 1013.3
20260508010059 58 0 0.0 3.0 0.00 0.54 0.43 72 1013.0
20260508004548 59 312 0.0 6.0 0.00 0.63 0.43 67 1012.7
20260508003050 60 14 1.0 7.0 0.00 0.63 0.43 64 1012.5
20260508001559 60 53 3.0 9.0 0.00 0.63 0.43 63 1012.2
20260508000056 61 261 5.0 13.0 0.00 0.63 0.43 61 1011.8
20260507234551 62 311 3.0 15.0 0.00 0.66 0.43 63 1012.0
20260507233048 62 275 5.0 16.0 0.00 0.66 0.43 63 1011.7
20260507231548 63 34 3.0 18.0 0.00 0.66 0.43 63 1011.6
20260507230053 63 338 3.0 13.0 0.00 0.66 0.43 63 1011.4
20260507224548 64 283 3.0 16.0 0.00 0.69 0.43 63 1011.0
20260507223053 66 231 7.0 18.0 0.00 0.69 0.43 62 1010.6
20260507221552 69 355 4.0 21.0 0.00 0.69 0.43 59 1010.3
20260507220302 71 59 6.0 17.0 0.00 0.69 0.43 57 1010.0
20260507214548 72 342 6.0 13.0 0.00 0.69 0.43 56 1009.5
20260507213057 73 291 6.0 17.0 0.00 0.69 0.43 57 1009.5
20260507211555 73 268 6.0 16.0 0.00 0.69 0.43 57 1009.2
20260507210054 73 265 5.0 10.0 0.00 0.69 0.43 59 1008.9
20260507204550 75 309 4.0 14.0 0.00 0.69 0.43 59 1008.9
20260507203050 76 303 6.0 15.0 0.00 0.69 0.43 58 1008.6
20260507201555 75 304 4.0 12.0 0.00 0.69 0.43 64 1008.6
20260507200055 76 291 3.0 10.0 0.00 0.69 0.43 64 1008.3
20260507194549 76 305 3.0 12.0 0.00 0.69 0.43 68 1008.3
20260507193052 74 296 1.0 5.0 0.02 0.69 0.43 77 1008.4
20260507191551 71 141 2.0 5.0 0.16 0.69 0.43 91 1008.6
20260507190051 68 192 2.0 5.0 0.16 0.69 0.43 92 1008.9
20260507184549 68 187 0.0 2.0 0.16 0.69 0.43 91 1008.9
20260507183055 69 0 0.0 6.0 0.13 0.66 0.40 83 1008.9
20260507181548 73 0 0.0 3.0 0.00 0.52 0.27 71 1008.8
20260507180057 74 0 0.0 3.0 0.00 0.52 0.27 70 1008.8